Snowfall_Accumulation
0.0 0.0 0.0 0.0 0.0 0.0 0.0 0.0 0.0 0.0 0.0 0.0 0.0 0.0 0.0 0.0 0.0 0.0 0.0 0.0 0.0 0.0 0.0 0.0 0.0 0.0 0.0 0.0 0.0 0.0 0.0 0.0 0.0 0.0 0.0 0.0 0.0 0.0 0.0 0.0 0.0 0.0 0.0 0.0
0.0 0.0 0.0 0.0 0.0 0.0 0.0 0.0 0.0 0.0 0.0 0.0 0.0 0.0 0.0 0.0 0.0 0.0 0.0 0.0 0.0 0.0 0.0 0.0 0.0 0.0 0.0 0.0 0.0 0.0 0.0 0.0 0.0 0.0 0.0 0.0 0.0 0.0 0.0 0.0 0.0 0.0 0.0 0.0
0.0 0.0 0.0 0.0 0.0 0.0 0.0 0.0 0.0 0.0 0.0 0.0 0.0 0.0 0.0 0.0 0.0 0.0 0.0 0.0 0.0 0.0 0.0 0.0 0.0 0.0 0.0 0.0 0.0 0.0 0.0 0.0 0.0 0.0 0.0 0.0 0.0 0.0 0.0 0.0 0.0 0.0 0.0 0.0
0.0 0.0 0.0 0.0 0.0 0.0 0.0 0.0 0.0 0.0 0.0 0.0 0.0 0.0 0.0 0.0 0.0 0.0 0.0 0.0 0.0 0.0 0.0 0.0 0.0 0.0 0.0 0.0 0.0 0.0 0.0 0.0 0.0 0.0 0.0 0.0 0.0 0.0 0.0 0.0 0.0 0.0 0.0 0.0
0.0 0.0 0.0 0.0 0.0 0.0 0.0 0.0 0.0 0.0 0.0 0.0 0.0 0.0 0.0 0.0 0.0 0.0 0.0 0.0 0.0 0.0 0.0 0.0 0.0 0.0 0.0 0.0 0.0 0.0 0.0 0.0 0.0 0.0 0.0 0.0 0.0 0.0 0.0 0.0 0.0 0.0 0.0 0.0
0.0 0.0 0.0 0.0 0.0 0.0 0.0 0.0 0.0 0.0 0.0 0.2 0.0 0.0 0.0 0.0 0.0 0.0 0.0 0.0 0.0 0.0 0.0 0.0 0.0 0.0 0.0 0.0 0.0 0.0 0.0 0.0 0.0 0.0 0.0 0.0 0.0 0.0 0.0 0.0 0.0 0.0 0.0 0.0
0.0 0.0 0.0 0.0 0.0 0.0 0.0 0.0 0.3 0.6 1.5 0.6 0.0 0.1 0.0 0.0 0.0 0.0 0.0 0.0 0.0 0.0 0.0 0.0 0.0 0.0 0.0 0.0 0.0 0.0 0.0 0.0 0.0 0.0 0.0 0.0 0.0 0.0 0.0 0.0 0.0 0.0 0.0 0.0
0.0 0.0 0.0 0.0 0.0 0.0 0.0 0.0 0.6 3.0 1.8 0.4 0.1 0.3 0.0 0.0 0.0 0.0 0.0 0.0 0.0 0.0 0.0 0.0 0.0 0.0 0.0 0.0 0.0 0.0 0.0 0.0 0.0 0.0 0.0 0.0 0.0 0.0 0.0 0.0 0.0 0.0 0.0 0.0
0.0 0.0 0.0 0.0 0.0 0.0 0.0 0.0 0.0 0.2 4.1 2.8 0.0 0.0 0.0 0.0 0.0 0.0 0.0 0.0 0.0 0.0 0.0 0.0 0.0 0.0 0.0 0.0 0.0 0.0 0.0 0.0 0.0 0.0 0.0 0.0 0.0 0.0 0.0 0.0 0.0 0.0 0.0 0.0
0.0 0.0 0.0 0.0 0.0 0.0 0.0 0.0 0.3 0.4 4.9 3.8 0.0 0.0 0.0 0.0 0.0 0.0 0.0 0.0 0.0 0.0 0.0 0.0 0.0 0.0 0.0 0.0 0.0 0.0 0.0 0.0 0.0 0.0 0.0 0.0 0.0 0.0 0.0 0.0 0.0 0.0 0.0 0.0
0.0 0.0 0.0 0.0 0.0 0.0 0.0 0.0 0.0 0.0 0.4 2.7 2.3 0.1 0.0 0.0 0.0 0.0 0.0 0.0 0.0 0.0 0.0 0.0 0.0 0.0 0.0 0.0 0.0 0.0 0.0 0.0 0.0 0.0 0.0 0.0 0.0 0.0 0.0 0.0 0.0 0.0 0.0 0.0
0.0 0.1 3.3 0.1 0.0 0.0 0.0 0.0 0.0 0.9 0.5 0.6 1.3 1.3 0.0 0.0 0.0 0.0 0.0 0.0 0.0 0.0 0.0 0.0 0.0 0.0 0.0 0.0 0.0 0.0 0.0 0.0 0.0 0.0 0.0 0.0 0.0 0.0 0.0 0.0 0.0 0.0 0.0 0.0
0.0 1.1 5.5 3.3 0.1 0.0 0.0 0.0 0.0 0.1 1.4 2.9 5.7 1.5 0.0 0.0 0.0 0.0 0.0 0.0 0.0 0.0 0.0 0.0 0.0 0.0 0.0 0.0 0.0 0.0 0.0 0.0 0.0 0.0 0.0 0.0 0.0 0.0 0.0 0.0 0.0 0.0 0.0 0.0
nan 1.7 3.4 3.9 0.2 0.0 1.3 0.6 0.3 1.1 5.6 2.6 2.0 0.9 0.0 0.0 0.0 0.0 0.0 0.0 0.0 0.0 0.0 0.0 0.0 0.0 0.0 0.0 0.0 0.0 0.0 0.0 0.0 0.0 0.0 0.0 0.0 0.0 0.0 0.0 0.0 0.0 0.0 0.0
0.1 5.5 0.8 0.9 0.4 0.4 0.7 0.9 0.5 0.6 0.3 1.8 0.5 0.2 0.0 0.3 0.2 0.0 0.0 0.0 0.0 0.0 0.0 0.0 0.0 0.0 0.0 0.0 0.0 0.0 0.0 0.0 0.0 0.0 0.0 0.0 0.0 0.0 0.0 0.0 0.1 0.1 0.0 0.0
0.7 6.4 1.6 4.3 0.2 0.3 0.8 0.2 0.1 0.0 0.0 0.0 0.0 0.1 0.2 0.0 0.0 0.0 0.0 0.0 0.0 0.0 0.0 0.0 0.0 0.0 0.0 0.0 0.0 0.0 0.0 0.0 0.0 0.0 0.0 0.0 0.1 0.1 0.1 0.2 0.2 0.1 0.1 0.1
0.8 3.9 8.5 14.2 0.2 0.6 7.0 0.7 0.0 0.0 0.0 0.0 0.4 1.0 0.9 0.2 0.0 0.2 0.3 0.1 0.0 0.0 0.0 0.0 0.0 0.0 0.0 0.0 0.0 0.0 0.0 0.0 0.1 0.1 0.3 0.3 0.2 0.3 0.2 0.2 0.3 0.2 0.2 0.2
1.4 5.7 7.1 19.7 9.9 34.5 2.3 0.0 0.0 0.0 0.5 0.6 1.4 1.6 1.3 0.4 0.0 0.2 0.1 0.0 0.0 0.0 0.0 0.0 0.0 0.0 0.0 0.0 0.0 0.0 0.1 0.1 0.2 0.5 0.8 0.3 0.5 0.8 0.2 0.2 0.3 0.3 0.4 0.5
0.0 0.6 11.1 31.0 17.5 1.6 0.1 0.3 0.1 0.6 1.1 2.0 1.5 0.7 0.9 0.0 0.0 0.0 0.0 0.0 0.0 0.0 0.0 0.0 0.0 0.0 0.0 0.0 0.0 0.1 0.2 0.2 0.3 0.3 0.3 0.2 1.0 2.1 0.5 2.3 0.6 0.5 1.4 0.9
0.1 0.1 2.9 26.1 37.5 28.0 3.1 1.0 0.4 1.1 5.1 2.5 2.7 2.3 1.7 0.3 1.4 0.0 0.0 0.0 0.0 0.0 0.0 0.0 0.0 0.0 0.0 0.0 0.1 0.2 0.2 0.2 0.3 0.3 0.4 0.3 1.2 3.0 2.4 1.2 2.0 2.3 2.2 2.3
5.6 9.7 13.4 13.0 22.8 8.2 1.0 0.3 0.0 5.3 5.3 0.5 0.6 1.6 1.2 2.4 1.0 0.1 0.0 0.0 0.0 0.1 0.1 0.0 0.1 0.1 0.1 0.4 0.5 0.4 0.2 0.3 0.3 0.5 0.5 0.7 1.1 3.1 2.1 2.4 1.8 3.1 3.4 2.0
2.8 10.4 20.8 15.6 22.8 27.0 0.6 0.1 1.2 1.4 0.2 0.2 0.5 0.0 0.2 0.0 0.0 0.0 0.0 0.0 0.0 0.0 0.0 0.0 0.2 0.2 0.3 0.5 1.1 0.5 0.3 0.3 0.6 0.9 1.3 2.2 3.6 3.5 3.5 5.8 3.6 4.7 4.6 4.5
5.4 1.8 8.1 3.5 5.8 0.6 0.9 1.1 0.2 0.1 0.5 0.3 0.1 0.1 0.0 0.1 0.0 0.0 0.0 0.0 0.0 0.0 0.1 0.2 0.3 0.3 0.2 0.4 1.3 2.6 0.5 0.8 1.4 3.6 4.7 5.3 4.8 4.7 5.2 7.6 4.6 5.8 4.8 5.7
0.6 0.3 2.3 2.8 0.2 0.2 0.0 0.0 0.0 0.1 0.1 0.0 0.1 0.1 0.2 0.2 0.2 0.4 0.4 0.2 0.2 0.2 0.3 0.5 0.9 1.0 0.7 0.8 1.0 1.4 1.4 1.7 6.9 7.1 4.5 3.9 4.9 3.7 4.6 5.8 6.4 8.2 6.0 4.8
0.4 0.3 1.0 1.5 0.1 0.0 0.0 0.0 0.1 0.2 0.2 0.2 0.2 0.2 0.1 0.2 0.9 0.5 0.6 0.5 0.3 0.4 0.6 0.7 1.2 1.0 1.3 1.2 1.3 2.1 2.5 3.6 4.6 4.7 3.0 4.3 5.7 6.4 4.3 3.9 8.0 6.3 3.8 8.7
0.0 0.0 0.2 1.7 0.0 0.0 0.0 0.0 0.1 0.1 0.1 0.1 0.2 0.4 0.3 0.3 0.4 0.6 0.5 0.3 0.5 1.1 1.2 1.5 1.6 1.8 1.9 2.3 2.6 3.6 5.6 5.4 5.5 3.3 4.3 4.4 4.4 3.9 4.0 4.5 5.0 nan nan nan
Water_Equivalent
0.00 0.00 0.00 0.00 0.00 0.00 0.00 0.00 0.00 0.00 0.00 0.00 0.00 0.00 0.00 0.00 0.00 0.00 0.00 0.00 0.00 0.00 0.00 0.00 0.00 0.00 0.00 0.00 0.00 0.00 0.00 0.00 0.00 0.00 0.00 0.00 0.00 0.00 0.00 0.00 0.00 0.00 0.00 0.00
0.00 0.00 0.00 0.00 0.00 0.00 0.00 0.00 0.00 0.00 0.00 0.00 0.00 0.00 0.00 0.00 0.00 0.00 0.00 0.00 0.00 0.00 0.00 0.00 0.00 0.00 0.00 0.00 0.00 0.00 0.00 0.00 0.00 0.00 0.00 0.00 0.00 0.00 0.00 0.00 0.00 0.00 0.00 0.00
0.00 0.00 0.00 0.00 0.00 0.00 0.00 0.00 0.00 0.00 0.00 0.00 0.00 0.00 0.00 0.00 0.00 0.00 0.00 0.00 0.00 0.00 0.00 0.00 0.00 0.00 0.00 0.00 0.00 0.00 0.00 0.00 0.00 0.00 0.00 0.00 0.00 0.00 0.00 0.00 0.00 0.00 0.00 0.00
0.00 0.00 0.00 0.00 0.00 0.00 0.00 0.00 0.00 0.00 0.00 0.00 0.00 0.00 0.00 0.00 0.00 0.00 0.00 0.00 0.00 0.00 0.00 0.00 0.00 0.00 0.00 0.00 0.00 0.00 0.00 0.00 0.00 0.00 0.00 0.00 0.00 0.00 0.00 0.00 0.00 0.00 0.00 0.00
0.00 0.00 0.00 0.00 0.00 0.00 0.00 0.00 0.00 0.00 0.00 0.00 0.00 0.00 0.00 0.00 0.00 0.00 0.00 0.00 0.00 0.00 0.00 0.00 0.00 0.00 0.00 0.00 0.00 0.00 0.00 0.00 0.00 0.00 0.00 0.00 0.00 0.00 0.00 0.00 0.00 0.00 0.00 0.00
0.00 0.00 0.00 0.00 0.00 0.00 0.00 0.00 0.00 0.00 0.00 0.03 0.00 0.00 0.00 0.00 0.00 0.00 0.00 0.00 0.00 0.00 0.00 0.00 0.00 0.00 0.00 0.00 0.00 0.00 0.00 0.00 0.00 0.00 0.00 0.00 0.00 0.00 0.00 0.00 0.00 0.00 0.00 0.00
0.00 0.00 0.00 0.00 0.00 0.00 0.00 0.00 0.06 0.11 0.28 0.13 0.00 0.02 0.00 0.00 0.00 0.00 0.00 0.00 0.00 0.00 0.00 0.00 0.00 0.00 0.00 0.00 0.00 0.00 0.00 0.00 0.00 0.00 0.00 0.00 0.00 0.00 0.00 0.00 0.00 0.00 0.00 0.00
0.00 0.00 0.00 0.00 0.00 0.00 0.00 0.00 0.12 0.40 0.30 0.09 0.02 0.05 0.00 0.00 0.00 0.00 0.00 0.00 0.00 0.00 0.00 0.00 0.00 0.00 0.00 0.00 0.00 0.00 0.00 0.00 0.00 0.00 0.00 0.00 0.00 0.00 0.00 0.00 0.00 0.00 0.00 0.00
0.00 0.00 0.00 0.00 0.00 0.00 0.00 0.00 0.00 0.04 0.55 0.47 0.01 0.00 0.00 0.00 0.00 0.00 0.00 0.00 0.00 0.00 0.00 0.00 0.00 0.00 0.00 0.00 0.00 0.00 0.00 0.00 0.00 0.00 0.00 0.00 0.00 0.00 0.00 0.00 0.00 0.00 0.00 0.00
0.00 0.01 0.00 0.00 0.00 0.00 0.00 0.00 0.06 0.08 0.66 0.47 0.00 0.00 0.00 0.00 0.00 0.00 0.00 0.00 0.00 0.00 0.00 0.00 0.00 0.00 0.00 0.00 0.00 0.00 0.00 0.00 0.00 0.00 0.00 0.00 0.00 0.00 0.00 0.00 0.00 0.00 0.00 0.00
0.00 0.00 0.01 0.00 0.00 0.00 0.00 0.00 0.00 0.00 0.08 0.41 0.33 0.02 0.00 0.00 0.00 0.00 0.00 0.00 0.00 0.00 0.00 0.00 0.00 0.00 0.00 0.00 0.00 0.00 0.00 0.00 0.00 0.00 0.00 0.00 0.00 0.00 0.00 0.00 0.00 0.00 0.00 0.00
0.00 0.01 0.54 0.01 0.00 0.00 0.00 0.00 0.00 0.18 0.08 0.11 0.25 0.20 0.00 0.00 0.00 0.00 0.00 0.00 0.00 0.00 0.00 0.00 0.00 0.00 0.00 0.00 0.00 0.00 0.00 0.00 0.00 0.00 0.00 0.00 0.00 0.00 0.00 0.00 0.00 0.00 0.00 0.00
0.00 0.22 0.98 0.56 0.02 0.00 0.00 0.00 0.00 0.02 0.24 0.43 0.81 0.22 0.00 0.00 0.00 0.00 0.00 0.00 0.00 0.00 0.00 0.00 0.00 0.00 0.00 0.00 0.00 0.00 0.00 0.00 0.00 0.00 0.00 0.00 0.00 0.00 0.00 0.00 0.00 0.00 0.00 0.00
nan 0.36 0.57 0.58 0.04 0.00 0.20 0.09 0.04 0.16 0.76 0.42 0.30 0.14 0.01 0.00 0.00 0.00 0.00 0.00 0.00 0.00 0.00 0.00 0.00 0.00 0.00 0.00 0.00 0.00 0.00 0.00 0.00 0.00 0.00 0.00 0.00 0.00 0.00 0.00 0.01 0.01 0.01 0.01
0.01 0.90 0.17 0.17 0.08 0.08 0.11 0.15 0.09 0.09 0.05 0.21 0.08 0.03 0.00 0.04 0.03 0.00 0.00 0.00 0.00 0.00 0.00 0.00 0.00 0.00 0.00 0.00 0.00 0.00 0.00 0.00 0.00 0.00 0.00 0.00 0.00 0.00 0.01 0.01 0.01 0.01 0.01 0.01
0.11 1.02 0.26 0.73 0.04 0.07 0.14 0.03 0.01 0.01 0.00 0.00 0.01 0.02 0.02 0.00 0.00 0.00 0.00 0.00 0.00 0.00 0.00 0.00 0.00 0.00 0.00 0.00 0.00 0.00 0.00 0.00 0.00 0.00 0.01 0.01 0.01 0.03 0.03 0.03 0.05 0.02 0.02 0.02
0.17 0.81 1.32 1.93 0.04 0.11 0.88 0.14 0.00 0.00 0.00 0.00 0.09 0.13 0.17 0.03 0.00 0.03 0.04 0.01 0.00 0.00 0.00 0.00 0.00 0.00 0.00 0.00 0.00 0.00 0.00 0.00 0.02 0.02 0.06 0.06 0.04 0.06 0.04 0.03 0.05 0.05 0.04 0.04
0.31 1.10 1.44 2.83 1.47 3.69 0.42 0.00 0.00 0.00 0.05 0.07 0.17 0.21 0.19 0.06 0.00 0.03 0.03 0.01 0.00 0.00 0.00 0.00 0.00 0.00 0.00 0.00 0.00 0.00 0.01 0.02 0.04 0.09 0.16 0.06 0.09 0.12 0.04 0.04 0.05 0.04 0.06 0.08
0.01 0.13 1.57 3.77 2.19 0.29 0.02 0.03 0.01 0.07 0.12 0.23 0.17 0.10 0.13 0.01 0.00 0.00 0.01 0.01 0.00 0.00 0.00 0.00 0.00 0.00 0.00 0.00 0.00 0.02 0.03 0.03 0.05 0.05 0.06 0.04 0.15 0.29 0.07 0.33 0.08 0.07 0.22 0.15
0.03 0.03 0.51 3.30 4.24 3.00 0.33 0.13 0.06 0.17 0.53 0.35 0.39 0.31 0.23 0.04 0.17 0.00 0.00 0.00 0.00 0.00 0.00 0.00 0.00 0.00 0.01 0.01 0.02 0.03 0.02 0.03 0.04 0.04 0.05 0.04 0.16 0.40 0.31 0.17 0.27 0.35 0.35 0.35
0.69 1.23 1.66 1.80 2.79 1.24 0.19 0.05 0.00 0.63 0.50 0.08 0.10 0.23 0.18 0.30 0.14 0.02 0.01 0.00 0.00 0.01 0.01 0.01 0.02 0.02 0.02 0.04 0.06 0.04 0.03 0.03 0.03 0.05 0.05 0.08 0.13 0.43 0.27 0.33 0.28 0.41 0.47 0.27
0.34 1.12 2.37 1.82 2.54 3.00 0.10 0.02 0.13 0.17 0.03 0.05 0.09 0.01 0.03 0.00 0.00 0.00 0.00 0.00 0.00 0.00 0.00 0.01 0.03 0.02 0.03 0.06 0.11 0.06 0.04 0.03 0.06 0.09 0.13 0.28 0.48 0.46 0.48 0.85 0.51 0.70 0.63 0.62
0.63 0.23 0.90 0.46 0.85 0.12 0.17 0.17 0.04 0.02 0.09 0.05 0.03 0.01 0.00 0.02 0.01 0.00 0.00 0.00 0.00 0.00 0.02 0.03 0.04 0.04 0.03 0.05 0.13 0.23 0.06 0.07 0.15 0.51 0.74 0.75 0.66 0.66 0.67 1.03 0.60 0.85 0.72 0.87
0.11 0.08 0.37 0.38 0.03 0.04 0.01 0.00 0.01 0.02 0.02 0.00 0.02 0.02 0.04 0.03 0.02 0.08 0.06 0.03 0.02 0.03 0.04 0.06 0.10 0.12 0.08 0.09 0.11 0.13 0.12 0.17 1.14 1.08 0.57 0.47 0.61 0.48 0.59 0.81 0.93 1.26 0.92 0.73
0.10 0.08 0.24 0.30 0.03 0.01 0.01 0.00 0.01 0.03 0.04 0.04 0.04 0.03 0.02 0.02 0.12 0.07 0.08 0.06 0.04 0.05 0.06 0.08 0.12 0.10 0.12 0.11 0.11 0.18 0.21 0.39 0.64 0.68 0.33 0.53 0.81 0.90 0.55 0.48 0.81 0.69 0.43 1.00
0.00 0.00 0.04 0.23 0.00 0.00 0.01 0.00 0.01 0.02 0.02 0.01 0.03 0.06 0.04 0.06 0.05 0.07 0.07 0.04 0.06 0.11 0.11 0.14 0.15 0.15 0.13 0.17 0.21 0.29 0.58 0.60 0.63 0.37 0.56 0.57 0.58 0.53 0.52 0.54 0.53 nan nan nan
SL_Ratio
nan nan nan nan nan nan nan nan nan nan nan nan nan nan nan nan nan nan nan nan nan nan nan nan nan nan nan nan nan nan nan nan nan nan nan nan nan nan nan nan nan nan nan nan
nan nan nan nan nan nan nan nan nan nan nan nan nan nan nan nan nan nan nan nan nan nan nan nan nan nan nan nan nan nan nan nan nan nan nan nan nan nan nan nan nan nan nan nan
nan nan nan nan nan nan nan nan nan nan nan nan nan nan nan nan nan nan nan nan nan nan nan nan nan nan nan nan nan nan nan nan nan nan nan nan nan nan nan nan nan nan nan nan
nan nan nan nan nan nan nan nan nan nan nan nan nan 5.0 nan nan nan nan nan nan nan nan nan nan nan nan nan nan nan nan nan nan nan nan nan nan nan nan nan nan nan nan nan nan
nan nan nan nan nan nan nan nan nan nan nan nan nan nan nan nan nan nan nan nan nan nan nan nan nan nan nan nan nan nan nan nan nan nan nan nan nan nan nan nan nan nan nan nan
nan nan nan nan nan nan nan nan nan nan nan 5.0 nan nan nan nan nan nan nan nan nan nan nan nan nan nan nan nan nan nan nan nan nan nan nan nan nan nan nan nan nan nan nan nan
nan nan nan nan nan nan nan nan 4.7 5.0 5.4 4.9 nan 4.7 nan nan nan nan nan nan nan nan nan nan nan nan nan nan nan nan nan nan nan nan nan nan nan nan nan nan nan nan nan nan
nan nan nan nan nan nan nan nan 4.7 7.4 5.8 4.5 4.9 5.3 5.0 nan nan nan nan nan nan nan nan nan nan nan nan nan nan nan nan nan nan nan nan nan nan nan nan nan nan nan nan nan
3.8 3.6 nan nan nan nan nan nan nan 5.0 7.4 6.0 4.0 nan nan nan nan nan nan nan nan nan nan nan nan nan nan nan nan nan nan nan nan nan nan nan nan nan nan nan nan nan nan nan
nan 4.0 nan nan nan nan nan nan 5.1 4.8 7.3 8.2 nan nan nan nan nan nan nan nan nan nan nan nan nan nan nan nan nan nan nan nan nan nan nan nan nan nan nan nan nan nan nan nan
nan 5.0 3.6 nan nan nan nan nan nan nan 4.8 6.6 6.9 5.5 nan nan nan nan nan nan nan nan nan nan nan nan nan nan nan nan nan nan nan nan nan nan nan nan nan nan nan nan nan nan
nan 5.2 6.1 5.2 nan nan nan nan nan 5.2 6.1 5.2 5.2 6.6 nan nan nan nan nan nan nan nan nan nan nan nan nan nan nan nan nan nan nan nan nan nan nan nan nan nan nan nan nan nan
nan 5.1 5.6 5.8 4.1 nan 5.0 nan 5.6 5.8 5.8 6.8 7.0 6.9 nan nan nan nan nan nan nan nan nan nan nan nan nan nan nan nan nan nan nan nan nan nan nan nan nan nan nan 5.0 3.3 4.0
nan 4.8 5.9 6.7 5.9 5.0 6.5 6.3 6.1 6.8 7.4 6.1 6.6 6.5 5.2 nan nan nan nan nan nan nan nan nan nan nan nan nan nan nan nan nan nan nan nan nan nan nan nan nan 4.1 3.8 3.8 4.2
4.2 6.1 4.9 5.3 5.4 5.3 6.0 6.1 5.7 6.4 6.2 8.4 6.3 6.1 5.6 6.7 6.3 5.0 nan nan nan nan nan nan nan nan nan nan nan nan nan nan nan nan nan nan nan 3.1 3.9 4.2 4.3 4.5 4.7 4.5
6.4 6.2 6.2 5.9 4.9 4.4 5.5 5.3 5.6 5.8 5.8 nan 3.1 3.6 7.0 5.0 nan nan 5.0 nan nan nan nan nan nan nan nan nan nan nan nan nan 5.0 4.0 3.8 4.2 4.4 4.6 4.7 4.9 5.2 5.3 5.1 5.1
5.0 4.8 6.4 7.3 4.9 6.0 8.0 5.1 5.0 nan nan nan 4.2 7.2 5.4 6.4 7.5 6.3 6.3 5.9 5.0 5.0 nan nan nan nan nan nan nan nan nan 4.0 4.8 5.4 4.9 4.9 5.1 5.4 5.3 5.1 5.3 5.3 5.1 5.1
4.6 5.2 5.0 7.0 6.8 9.4 5.5 nan nan 5.0 9.4 8.8 8.2 7.6 6.9 6.9 7.5 5.9 5.7 6.0 nan nan nan nan nan nan nan nan nan 5.0 4.5 5.4 5.9 5.6 5.3 5.5 6.1 6.4 5.8 5.6 5.7 6.2 6.5 6.6
3.6 4.3 7.1 8.2 8.0 5.6 5.4 8.0 7.9 8.7 9.0 8.7 8.6 7.5 7.0 6.5 nan 5.0 5.0 5.0 nan nan nan nan nan nan nan nan 4.5 6.9 6.5 6.1 6.3 5.9 6.3 5.9 6.6 7.2 7.3 6.9 7.7 7.7 6.7 6.3
4.6 4.5 5.7 7.9 8.8 9.3 9.6 7.4 6.0 6.5 9.7 7.3 6.9 7.3 7.6 6.5 8.0 7.5 nan 5.0 5.7 5.0 nan nan nan 4.5 5.2 5.6 7.0 7.1 7.9 7.4 7.8 7.9 8.0 8.1 7.5 7.4 7.6 7.1 7.3 6.5 6.3 6.7
8.1 7.8 8.1 7.2 8.1 6.6 5.2 5.1 3.8 8.4 10.6 6.4 5.6 6.8 7.1 7.8 7.0 6.0 5.3 5.0 5.9 5.9 6.3 6.0 5.4 6.6 7.2 9.0 8.5 8.4 7.6 9.6 9.6 10.7 10.6 8.9 8.1 7.3 7.7 7.4 6.5 7.6 7.2 7.3
8.2 9.3 8.8 8.6 9.0 9.0 5.8 6.3 9.6 8.3 6.0 4.8 5.8 5.2 5.7 5.7 5.6 nan nan nan nan 5.0 5.0 6.1 7.9 7.5 8.3 8.2 10.4 8.8 7.8 9.3 10.6 10.4 10.0 7.8 7.4 7.6 7.4 6.8 7.1 6.7 7.2 7.2
8.6 7.9 9.0 7.8 6.8 4.7 4.9 6.3 5.3 5.2 5.2 5.6 5.1 5.6 5.8 6.4 5.8 7.5 6.3 5.8 5.0 5.0 5.6 6.5 8.2 8.0 7.4 8.4 9.9 11.3 9.9 10.4 9.7 7.0 6.4 7.1 7.3 7.2 7.7 7.4 7.7 6.8 6.6 6.5
5.2 3.8 6.3 7.3 5.5 5.7 5.2 4.1 4.8 5.2 5.4 5.7 4.5 5.3 5.8 7.9 7.5 5.8 6.0 6.7 6.8 6.6 7.8 8.5 8.6 8.3 9.5 9.0 9.2 11.1 11.3 9.8 6.0 6.6 7.9 8.3 8.0 7.6 7.9 7.2 6.9 6.5 6.5 6.6
4.4 3.6 4.2 5.0 4.3 4.1 4.7 5.0 5.2 5.0 5.1 5.5 5.6 5.6 7.1 7.3 7.3 6.6 7.6 7.1 7.9 9.5 9.4 9.2 9.8 10.7 11.0 11.5 11.5 11.5 12.0 9.2 7.3 6.9 8.9 8.1 7.1 7.1 7.9 8.2 9.9 9.1 8.7 8.7
5.0 5.0 5.5 7.1 nan 4.0 4.1 5.0 3.9 4.9 5.7 5.4 6.5 7.4 6.5 6.0 7.7 8.9 8.2 7.9 8.6 10.6 10.5 10.9 10.7 12.1 14.2 13.4 12.8 12.4 9.6 9.1 8.8 8.9 7.7 7.7 7.7 7.3 7.8 8.3 9.3 nan nan nan